Regional Weather Roundup
Issued by NWS State College, PA

Current Version | Previous Version | Text Only | Print | Product List | Glossary On
Versions: 1 2 3 4 5 6 7 8 9 10 11 12 13 14 15 16 17 18 19 20 21 22 23 24 25 26 27 28 29 30 31 32 33 34 35 36 37 38 39 40 41 42 43 44 45 46 47 48 49 50
000
ASUS41 KCTP 272210
RWRCTP

REGIONAL WEATHER ROUNDUP
NATIONAL WEATHER SERVICE STATE COLLEGE PA
500 PM EST SAT DEC 27 2014

Note: "fair" indicates few or no clouds below 12,000 feet with no
significant weather and/or obstructions to visibility.

* = STATION THAT DOES NOT REPORT PRECIPITATION /E.G. RAIN...SNOW...ETC/
    THUNDER OR FOG.

PAZ002>004-007>009-013>016-020>023-029>032-272300-
WESTERN PENNSYLVANIA

CITY           SKY/WX    TMP DP  RH WIND       PRES   REMARKS
ERIE           CLOUDY    56  33  42 SW12      29.99R
MEADVILLE      CLOUDY    52  34  50 S7        30.02R
FRANKLIN*      CLOUDY    50  36  57 S12G18    30.06S
NEW CASTLE       N/A     54  26  34 CALM      30.07R
BEAVER COUNTY  CLOUDY    54  27  35 S12       30.07R
BUTLER*        CLOUDY    54  30  40 S8        30.09S
PITTSBURGH INT MOCLDY    56  24  29 S7        30.08R
PITTSBURGH     PTCLDY    55  26  32 S9        30.08R
INDIANA*       PTCLDY    52  34  50 SW8       30.12S
LATROBE        PTCLDY    54  32  43 S7        30.11
WASHINGTON CO* NOT AVBL
$$

PAZ004>006-010>012-017>019-024>028-033>037-041-042-045-046-049>053-272300-
CENTRAL PENNSYLVANIA

CITY           SKY/WX    TMP DP  RH WIND       PRES   REMARKS
BRADFORD       PTCLDY    46  35  65 S9G20     30.03S
DUBOIS         CLOUDY    49  35  58 SW5       30.06S
CLEARFIELD     CLOUDY    50  36  58 CALM      30.07F
JOHNSTOWN      CLEAR     52  32  46 SW10      30.09R
ALTOONA        PTCLDY    52  30  43 S8        30.11R
STATE COLLEGE  CLEAR     50  34  53 SW3       30.09S
WILLIAMSPORT   MOCLDY    48  33  56 SE7       30.10F
SELINSGROVE    CLOUDY    51  34  52 CALM      30.12F
FT INDIANTOWN  PTCLDY    52  35  53 CALM      30.14S
CAPITAL CITY   PTCLDY    51  35  54 SE3       30.13S
HARRISBURG     MOCLDY    46  34  62 SE5       30.13S
YORK           CLEAR     47  30  51 CALM      30.14S
$$

PAZ038>040-043-044-047-048-054-055-060>062-067>071-272300-
EASTERN PENNSYLVANIA

CITY           SKY/WX    TMP DP  RH WIND       PRES   REMARKS
SCRANTON       MOCLDY    49  32  52 CALM      30.12F
MOUNT POCONO   PTCLDY    45  32  60 SW5       30.12F
ALLENTOWN      PTCLDY    46  33  60 SW5       30.15F
QUAKERTOWN*    PTCLDY    50  32  50 CALM      30.16S
READING        CLEAR     53  32  44 CALM      30.14F
LANCASTER      CLEAR     47  35  63 E5        30.14F
COATESVILLE    CLEAR     52  34  50 CALM      30.16S
POTTSTOWN      PTCLDY    53  31  42 CALM      30.16F
BLUE BELL      CLEAR     52  34  50 CALM      30.16S
DOYLESTOWN     PTCLDY    49  31  49 CALM      30.15F
WILLOW GROVE   NOT AVBL
NORTH PHILA    CLEAR     54  28  36 CALM      30.18F
PHILADELPHIA   MOCLDY    54  28  36 S6        30.17F
$$



USA.gov is the U.S. government's official web portal to all federal, state and local government web resources and services.